Terminal Aerodrome Forecast
Issued by NWS

Home | Current Version | Previous Version | Text Only | Print | Product List | Glossary On
Versions: 1 2 3 4 5 6 7 8 9 10 11 12
000
FTUS45 KRIW 162300
TAFRKS
TAF
KRKS 162332Z 1700/1724 29010G18KT P6SM VCSH SCT110
     FM170200 23008KT P6SM SCT120
     FM172000 26010G16KT P6SM SCT120=

USA.gov is the U.S. government's official web portal to all federal, state and local government web resources and services.